Location: Fort Wayne
(41.1310°N, 85.1290°W)
Time: 10:48:43
(UTC-04:00)

Iridium 37 - Visible Passes

Search period start: 02 September 2015 00:00
Search period end: 12 September 2015 00:00
Orbit: 776 x 779 km, 86.4° (Epoch: 01 September)

Date Brightness Start Highest point End Pass type
(mag) Time Alt. Az. Time Alt. Az. Time Alt. Az.
02 Sep 6.5 05:38:58 10° N 05:44:02 50° E 05:49:05 10° SSE visible
03 Sep 7.6 05:05:55 10° NNE 05:10:18 27° ENE 05:14:46 10° SE visible
04 Sep 8.4 04:33:29 10° NE 04:36:23 15° ENE 04:39:31 10° ESE visible
04 Sep 5.5 06:12:32 10° N 06:17:42 62° W 06:22:49 10° SSW visible
05 Sep 5.8 05:38:58 10° N 05:44:11 73° E 05:49:24 10° S visible
06 Sep 6.9 05:05:41 10° NNE 05:10:33 39° E 05:15:26 10° SSE visible
07 Sep 7.8 04:32:49 10° NNE 04:36:45 22° ENE 04:40:48 10° SE visible
07 Sep 5.9 06:12:49 10° NNW 06:17:44 42° W 06:22:36 10° SSW visible
08 Sep 8.4 04:00:59 10° NE 04:02:46 12° ENE 04:04:52 10° E visible
08 Sep 5.4 05:39:04 10° N 05:44:18 79° W 05:49:30 10° S visible
09 Sep 6.1 05:05:36 10° N 05:10:44 57° E 05:15:52 10° SSE visible
09 Sep 7.0 06:47:45 10° NW 06:51:02 16° W 06:54:05 10° WSW visible
10 Sep 7.2 04:32:27 10° NNE 04:37:02 31° E 04:41:40 10° SE visible
10 Sep 6.3 06:13:14 10° NNW 06:17:45 30° W 06:22:10 10° SW visible
11 Sep 8.0 03:59:51 10° NNE 04:03:10 17° ENE 04:06:41 10° ESE visible
11 Sep 5.6 05:39:16 10° NNW 05:44:22 54° W 05:48:49 13° SSW visible
